Weather History for Monroe, MI

Change the Weather History Date:

Thursday, September 25, 2014

  Actual Average Record
Temperature  
Mean Temperature 58 °F -  
Max Temperature 71 °F 67 °F 88 °F (1935)
Min Temperature 46 °F 48 °F 34 °F (1942)
Degree Days  
Heating Degree Days 6    
Growing Degree Days 8 (Base 50)    
Moisture  
Dew Point 52 °F    
Average Humidity 81    
Maximum Humidity 100    
Minimum Humidity 53    
Precipitation  
Precipitation 0.00 in - - ()
Sea Level Pressure  
Sea Level Pressure 30.30 in    
Wind  
Wind Speed 1 mph (ESE)    
Max Wind Speed 12 mph    
Max Gust Speed -    
Visibility 7 miles    
Events Fog    
Averages and records for this station are not official NWS values.
T = Trace of Precipitation, MM = Missing Value Source: NWS Daily Summary

Daily Weather History Graph

Daily Weather History Graph

Search for Another Location

Airport:

Trip Planner

Search our weather history database for the weather conditions in past years. The results will help you decide how hot, cold, wet, or windy it might be!

Date:

Astronomy

Sep. 25, 2014 Rise Set
Actual Time 7:24 AM EDT 7:25 PM EDT
Civil Twilight 6:56 AM EDT 7:53 PM EDT
Nautical Twilight 6:23 AM EDT 8:25 PM EDT
Astronomical Twilight 5:50 AM EDT 8:58 PM EDT
Moon 8:42 AM EDT (9/25) 8:07 PM EDT (9/25)
Length of Visible Light 12h 57m
Length of Day
12h 01m
New Moon, 2% of the Moon is Illuminated
Sep 25
New Moon
Oct 1
First Quarter
Oct 8
Full
Oct 15
Last Quarter
Oct 23
New

Hourly Weather History & Observations

Time (EDT) Temp. Dew Point Humidity Pressure Visibility Wind Dir Wind Speed Gust Speed Precip Events Conditions
12:11 AM 55.4 °F 55.4 °F 100% 30.32 in 5.0 mi Calm Calm - N/A   Clear
12:31 AM 55.4 °F 53.6 °F 94% 30.32 in 1.8 mi Calm Calm - N/A   Mist
12:51 AM 53.6 °F 51.8 °F 94% 30.31 in 0.2 mi Calm Calm - N/A Fog Fog
1:11 AM 51.8 °F 51.8 °F 100% 30.31 in 0.5 mi Calm Calm - N/A Fog Fog
1:31 AM 51.8 °F 51.8 °F 100% 30.31 in 0.8 mi Calm Calm - N/A   Mostly Cloudy
1:52 AM 51.8 °F 51.8 °F 100% 30.31 in 0.2 mi Calm Calm - N/A Fog Fog
2:12 AM 51.8 °F 50.0 °F 94% 30.31 in 0.2 mi Calm Calm - N/A Fog Fog
2:32 AM 48.2 °F 48.2 °F 100% 30.31 in 0.5 mi Calm Calm - N/A Fog Fog
2:52 AM 50.0 °F 48.2 °F 94% 30.31 in 0.5 mi Calm Calm - N/A Fog Fog
3:12 AM 50.0 °F 48.2 °F 94% 30.31 in 7.0 mi Calm Calm - N/A   Clear
3:32 AM 50.0 °F 48.2 °F 94% 30.31 in 1.5 mi Calm Calm - N/A   Mist
3:52 AM 48.2 °F 48.2 °F 100% 30.31 in 1.0 mi Calm Calm - N/A   Mist
4:12 AM 51.8 °F 50.0 °F 94% 30.31 in 10.0 mi Calm Calm - N/A   Clear
4:32 AM 53.6 °F 51.8 °F 94% 30.31 in 10.0 mi SSE 4.6 mph - N/A   Clear
4:52 AM 55.4 °F 51.8 °F 88% 30.31 in 10.0 mi Calm Calm - N/A   Clear
5:13 AM 55.4 °F 51.8 °F 88% 30.32 in 10.0 mi Calm Calm - N/A   Clear
5:33 AM 53.6 °F 51.8 °F 94% 30.32 in 10.0 mi Calm Calm - N/A   Clear
5:53 AM 51.8 °F 48.2 °F 88% 30.33 in 10.0 mi Calm Calm - N/A   Clear
6:13 AM 50.0 °F 48.2 °F 94% 30.33 in 10.0 mi Calm Calm - N/A   Clear
6:33 AM 48.2 °F 46.4 °F 93% 30.33 in 3.0 mi Calm Calm - N/A   Clear
6:53 AM 48.2 °F 46.4 °F 93% 30.33 in 2.5 mi Calm Calm - N/A   Clear
7:13 AM 48.2 °F 46.4 °F 93% 30.33 in 7.0 mi Calm Calm - N/A   Clear
7:33 AM 48.2 °F 46.4 °F 93% 30.33 in 7.0 mi Calm Calm - N/A   Clear
7:53 AM 46.4 °F 46.4 °F 100% 30.33 in 4.0 mi Calm Calm - N/A   Clear
8:13 AM 50.0 °F 48.2 °F 94% 30.33 in 10.0 mi Calm Calm - N/A   Clear
8:34 AM 53.6 °F 51.8 °F 94% 30.33 in 10.0 mi Calm Calm - N/A   Clear
8:54 AM 57.2 °F 55.4 °F 94% 30.33 in 10.0 mi Calm Calm - N/A   Clear
9:14 AM 59.0 °F 53.6 °F 82% 30.34 in 10.0 mi Calm Calm - N/A   Clear
9:34 AM 60.8 °F 51.8 °F 72% 30.34 in 10.0 mi SSW 3.5 mph - N/A   Clear
9:54 AM 62.6 °F 51.8 °F 68% 30.34 in 10.0 mi Calm Calm - N/A   Clear
10:14 AM 62.6 °F 51.8 °F 68% 30.34 in 10.0 mi Calm Calm - N/A   Clear
10:34 AM 64.4 °F 51.8 °F 64% 30.34 in 10.0 mi Calm Calm - N/A   Clear
10:54 AM 66.2 °F 53.6 °F 64% 30.34 in 10.0 mi Calm Calm - N/A   Clear
11:15 AM 66.2 °F 53.6 °F 64% 30.34 in 7.0 mi Calm Calm - N/A   Clear
11:35 AM 69.8 °F 53.6 °F 56% 30.33 in 10.0 mi ESE 3.5 mph - N/A   Clear
11:50 AM 69.8 °F 55.4 °F 60% 30.33 in 10.0 mi East 5.8 mph - N/A   Clear
12:10 PM 69.8 °F 55.4 °F 60% 30.33 in 10.0 mi ESE 5.8 mph - N/A   Clear
12:30 PM 69.8 °F 55.4 °F 60% 30.32 in 10.0 mi East 5.8 mph - N/A   Clear
12:50 PM 69.8 °F 55.4 °F 60% 30.32 in 10.0 mi ESE 4.6 mph - N/A   Clear
1:10 PM 69.8 °F 55.4 °F 60% 30.32 in 10.0 mi SE 5.8 mph - N/A   Clear
1:30 PM 69.8 °F 55.4 °F 60% 30.31 in 10.0 mi ESE 4.6 mph - N/A   Clear
1:50 PM 71.6 °F 57.2 °F 60% 30.31 in 10.0 mi ESE 5.8 mph - N/A   Clear
2:11 PM 69.8 °F 55.4 °F 60% 30.30 in 10.0 mi ESE 8.1 mph - N/A   Clear
2:31 PM 69.8 °F 57.2 °F 64% 30.30 in 10.0 mi ESE 5.8 mph - N/A   Clear
2:51 PM 69.8 °F 57.2 °F 64% 30.30 in 10.0 mi ESE 5.8 mph - N/A   Clear
3:11 PM 69.8 °F 57.2 °F 64% 30.29 in 10.0 mi SE 5.8 mph - N/A   Clear
3:31 PM 69.8 °F 57.2 °F 64% 30.28 in 10.0 mi ESE 8.1 mph - N/A   Clear
3:51 PM 69.8 °F 55.4 °F 60% 30.28 in 10.0 mi ESE 8.1 mph - N/A   Clear
4:11 PM 69.8 °F 53.6 °F 56% 30.28 in 10.0 mi East 6.9 mph - N/A   Clear
4:31 PM 69.8 °F 51.8 °F 53% 30.27 in 10.0 mi ESE 11.5 mph - N/A   Clear
4:51 PM 68.0 °F 53.6 °F 60% 30.27 in 10.0 mi ESE 10.4 mph - N/A   Clear
5:11 PM 68.0 °F 53.6 °F 60% 30.27 in 10.0 mi ESE 8.1 mph - N/A   Clear
5:32 PM 68.0 °F 55.4 °F 64% 30.27 in 10.0 mi ESE 8.1 mph - N/A   Clear
5:52 PM 66.2 °F 55.4 °F 68% 30.27 in 10.0 mi ESE 6.9 mph - N/A   Clear
6:12 PM 66.2 °F 55.4 °F 68% 30.27 in 10.0 mi ESE 5.8 mph - N/A   Clear
6:32 PM 66.2 °F 55.4 °F 68% 30.27 in 10.0 mi East 6.9 mph - N/A   Clear
6:52 PM 64.4 °F 55.4 °F 73% 30.26 in 10.0 mi ESE 5.8 mph - N/A   Clear
7:12 PM 64.4 °F 55.4 °F 73% 30.26 in 10.0 mi ESE 4.6 mph - N/A   Clear
7:32 PM 62.6 °F 55.4 °F 77% 30.26 in 10.0 mi Calm Calm - N/A   Clear
7:52 PM 60.8 °F 55.4 °F 82% 30.26 in 7.0 mi Calm Calm - N/A   Clear
8:12 PM 57.2 °F 55.4 °F 94% 30.26 in 10.0 mi Calm Calm - N/A   Clear
8:32 PM 55.4 °F 53.6 °F 94% 30.26 in 7.0 mi Calm Calm - N/A   Clear
8:53 PM 55.4 °F 53.6 °F 94% 30.26 in 7.0 mi Calm Calm - N/A   Clear
9:13 PM 53.6 °F 51.8 °F 94% 30.27 in 7.0 mi Calm Calm - N/A   Clear
9:33 PM 53.6 °F 51.8 °F 94% 30.27 in 0.2 mi Calm Calm - N/A Fog Fog
9:49 PM 53.6 °F 51.8 °F 94% 30.27 in 3.0 mi Calm Calm - N/A   Clear
10:11 PM 51.8 °F 50.0 °F 94% 30.26 in 0.2 mi Calm Calm - N/A Fog Fog
10:31 PM 51.8 °F 51.8 °F 100% 30.26 in 0.2 mi Calm Calm - N/A Fog Fog
10:51 PM 51.8 °F 51.8 °F 100% 30.27 in 0.8 mi Calm Calm - N/A   Mist
11:11 PM 50.0 °F 48.2 °F 94% 30.27 in 0.5 mi Calm Calm - N/A Fog Fog
11:31 PM 53.6 °F 51.8 °F 94% 30.27 in 2.5 mi Calm Calm - N/A   Clear
11:51 PM 50.0 °F 48.2 °F 94% 30.27 in 0.2 mi Calm Calm - N/A Fog Fog